VK2ADG-2 Weather Reports


Display with metric or nautical units.
time (UTC)temp
F
wind
direction
speed
MPH
gust
MPH
rain 1hr
in
rain 24hr
in
rain mn
in
humidity
%
barometer
mb
20260510000033 61 57 2.0 4.0 0.00 0.00 0.00 70 1028.3
20260509235031 59 69 3.0 4.0 0.00 0.00 0.00 72 1028.2
20260509234029 58 57 2.0 5.0 0.00 0.00 0.00 74 1028.3
20260509233046 58 77 2.0 4.0 0.00 0.00 0.00 75 1028.2
20260509232025 58 109 1.0 3.0 0.00 0.00 0.00 76 1028.3
20260509231041 57 93 1.0 3.0 0.00 0.00 0.00 78 1028.2
20260509230019 55 131 1.0 3.0 0.00 0.00 0.00 80 1028.1
20260509225016 54 95 1.0 3.0 0.00 0.00 0.00 81 1027.9
20260509224034 53 106 1.0 3.0 0.00 0.00 0.00 82 1027.8
20260509223052 53 122 1.0 3.0 0.00 0.00 0.00 83 1027.5
20260509222035 52 85 0.0 2.0 0.00 0.00 0.00 85 1027.5
20260509221027 50 18 2.0 3.0 0.00 0.00 0.00 90 1027.4
20260509220024 49 16 1.0 2.0 0.00 0.00 0.00 95 1027.2
20260509215022 47 130 1.0 3.0 0.00 0.00 0.00 96 1027.1
20260509214020 46 105 1.0 3.0 0.00 0.00 0.00 96 1027.1
20260509213017 46 93 0.0 2.0 0.00 0.00 0.00 96 1027.0
20260509212035 46 80 0.0 2.0 0.00 0.00 0.00 96 1027.0
20260509211032 45 124 0.0 2.0 0.00 0.00 0.00 96 1026.9
20260509210030 44 132 1.0 2.0 0.00 0.00 0.00 96 1026.9
20260509205028 44 158 0.0 2.0 0.00 0.00 0.00 96 1026.9
20260509204045 45 195 1.0 3.0 0.00 0.00 0.00 96 1026.7
20260509203023 45 167 2.0 3.0 0.00 0.00 0.00 95 1026.6
20260509202041 45 187 1.0 2.0 0.00 0.00 0.00 95 1026.6
20260509201038 45 186 2.0 3.0 0.00 0.00 0.00 95 1026.4
20260509200056 45 160 2.0 3.0 0.00 0.00 0.00 95 1026.3
20260509195033 44 175 0.0 2.0 0.00 0.00 0.00 95 1026.1
20260509194112 45 49 0.0 2.0 0.00 0.00 0.00 94 1026.1
20260509193029 45 41 0.0 2.0 0.00 0.00 0.00 94 1026.0
20260509192026 45 341 1.0 2.0 0.00 0.00 0.00 94 1025.8
20260509191024 45 353 2.0 3.0 0.00 0.00 0.00 94 1025.7
20260509190021 44 301 0.0 1.0 0.00 0.00 0.00 93 1025.6
20260509185019 45 0.0 1.0 0.00 0.00 0.00 93 1025.5
20260509184016 45 24 0.0 2.0 0.00 0.00 0.00 93 1025.4
20260509183034 45 47 0.0 2.0 0.00 0.00 0.00 93 1025.3
20260509182032 47 320 0.0 1.0 0.00 0.00 0.00 93 1025.2
20260509181049 47 295 1.0 2.0 0.00 0.00 0.00 94 1025.1
20260509180047 46 306 1.0 2.0 0.00 0.00 0.00 94 1024.9
20260509175025 46 109 1.0 2.0 0.00 0.00 0.00 93 1025.1
20260509174022 46 349 1.0 2.0 0.00 0.00 0.00 94 1025.0
20260509173040 46 328 1.0 2.0 0.00 0.00 0.00 94 1025.0
20260509172058 47 14 0.0 2.0 0.00 0.00 0.00 94 1025.0
20260509171035 47 48 0.0 1.0 0.00 0.00 0.00 94 1025.2
20260509170033 47 0.0 0.0 0.00 0.00 0.00 94 1025.1
20260509165030 46 0.0 1.0 0.00 0.00 0.00 93 1025.1
20260509164028 47 0.0 1.0 0.00 0.00 0.00 94 1025.1
20260509163025 48 112 0.0 1.0 0.00 0.00 0.00 94 1025.1
20260509162023 47 61 0.0 1.0 0.00 0.00 0.00 93 1025.0
20260509160019 48 148 0.0 2.0 0.00 0.00 0.00 93 1025.0
20260509155016 48 352 0.0 2.0 0.00 0.00 0.00 92 1025.1
20260509154034 48 337 0.0 1.0 0.00 0.00 0.00 92 1025.1
20260509153031 48 150 0.0 1.0 0.00 0.00 0.00 93 1025.0
20260509152029 48 0.0 0.0 0.00 0.00 0.00 91 1025.1
20260509151027 48 153 0.0 2.0 0.00 0.00 0.00 92 1025.0
20260509150024 47 0.0 1.0 0.00 0.00 0.00 90 1025.1
20260509145022 48 0.0 0.0 0.00 0.00 0.00 89 1025.0
20260509144019 49 153 0.0 1.0 0.00 0.00 0.00 89 1025.2
20260509143017 49 197 0.0 1.0 0.00 0.00 0.00 89 1025.1
20260509142034 49 198 0.0 2.0 0.00 0.00 0.00 90 1025.1
20260509141032 48 194 0.0 2.0 0.00 0.00 0.00 89 1025.2
20260509140030 48 0.0 1.0 0.00 0.00 0.00 88 1025.2
20260509135028 49 143 0.0 1.0 0.00 0.00 0.00 88 1025.2
20260509134025 50 196 0.0 2.0 0.00 0.00 0.00 87 1025.2
20260509133023 50 0.0 0.0 0.00 0.00 0.00 86 1025.2
20260509132020 50 0.0 2.0 0.00 0.00 0.00 85 1025.2
20260509131018 50 0.0 1.0 0.00 0.00 0.00 84 1025.2
20260509130036 51 175 0.0 2.0 0.00 0.00 0.00 84 1025.2
20260509125033 51 0.0 1.0 0.00 0.00 0.00 83 1025.1
20260509124111 50 252 0.0 2.0 0.00 0.00 0.00 84 1025.1
20260509123029 50 268 0.0 1.0 0.00 0.00 0.00 84 1025.1
20260509122026 50 0.0 1.0 0.00 0.00 0.00 82 1025.1
20260509121024 51 0.0 1.0 0.00 0.00 0.00 80 1025.0
20260509120022 52 0.0 1.0 0.00 0.00 0.00 80 1025.1
20260509115019 52 273 0.0 1.0 0.00 0.00 0.00 81 1025.1
20260509114017 51 271 1.0 2.0 0.00 0.00 0.00 83 1025.1
20260509113034 51 0.0 1.0 0.00 0.00 0.00 82 1025.0
20260509112032 52 0.0 1.0 0.00 0.00 0.00 80 1025.0
20260509111029 52 219 0.0 2.0 0.00 0.00 0.00 80 1025.1
20260509110047 51 0.0 1.0 0.00 0.00 0.00 80 1025.0
20260509105024 52 0.0 1.0 0.00 0.00 0.00 80 1025.1
20260509104022 52 0.0 0.0 0.00 0.00 0.00 78 1025.0
20260509103020 53 292 0.0 2.0 0.00 0.00 0.00 77 1025.0
20260509102017 53 0.0 1.0 0.00 0.00 0.00 75 1024.9
20260509101035 54 0.0 1.0 0.00 0.00 0.00 75 1024.9
20260509100032 54 0.0 1.0 0.00 0.00 0.00 74 1025.0
20260509095030 55 269 0.0 2.0 0.00 0.00 0.00 74 1024.9
20260509094028 55 0.0 1.0 0.00 0.00 0.00 74 1025.0
20260509093025 54 261 0.0 2.0 0.00 0.00 0.00 75 1024.9
20260509092023 54 0.0 1.0 0.00 0.00 0.00 74 1024.8
20260509091021 55 0.0 1.0 0.00 0.00 0.00 73 1024.8
20260509090038 56 0.0 1.0 0.00 0.00 0.00 71 1024.6
20260509085036 56 283 0.0 2.0 0.00 0.00 0.00 70 1024.6
20260509084034 56 0.0 1.0 0.00 0.00 0.00 69 1024.4
20260509083031 57 263 0.0 2.0 0.00 0.00 0.00 68 1024.3
20260509082029 57 246 1.0 2.0 0.00 0.00 0.00 67 1024.2
20260509081026 58 247 1.0 2.0 0.00 0.00 0.00 66 1024.1
20260509080024 58 245 1.0 2.0 0.00 0.00 0.00 64 1024.0
20260509075024 59 253 1.0 2.0 0.00 0.00 0.00 64 1023.8
20260509074019 59 249 1.0 2.0 0.00 0.00 0.00 63 1023.7
20260509073017 60 236 1.0 3.0 0.00 0.00 0.00 61 1023.6
20260509072035 61 243 1.0 2.0 0.00 0.00 0.00 60 1023.5
20260509071052 62 237 2.0 6.0 0.00 0.00 0.00 58 1023.3
20260509070030 63 201 3.0 6.0 0.00 0.00 0.00 57 1023.2
20260509065027 64 213 2.0 5.0 0.00 0.00 0.00 56 1023.1
20260509064025 64 206 2.0 5.0 0.00 0.00 0.00 56 1023.1
20260509063022 64 180 3.0 7.0 0.00 0.00 0.00 56 1023.1
20260509062020 64 179 3.0 6.0 0.00 0.00 0.00 55 1023.1
20260509061018 65 190 3.0 6.0 0.00 0.00 0.00 53 1023.0
20260509060035 65 209 2.0 4.0 0.00 0.00 0.00 54 1023.0
20260509055033 65 180 4.0 8.0 0.00 0.00 0.00 53 1023.0
20260509054051 65 180 3.0 7.0 0.00 0.00 0.00 53 1023.0
20260509053029 66 212 3.0 6.0 0.00 0.00 0.00 52 1023.0
20260509052026 66 221 4.0 10.0 0.00 0.00 0.00 52 1023.0
20260509051023 66 198 5.0 11.0 0.00 0.00 0.00 52 1023.0
20260509050041 66 246 3.0 5.0 0.00 0.00 0.00 53 1023.0
20260509045019 67 228 4.0 9.0 0.00 0.00 0.00 52 1023.0
20260509044016 66 229 3.0 8.0 0.00 0.00 0.00 53 1022.9
20260509043034 66 220 3.0 6.0 0.00 0.00 0.00 54 1023.0
20260509042031 66 235 4.0 9.0 0.00 0.00 0.00 54 1023.0
20260509041049 66 264 4.0 7.0 0.00 0.00 0.00 54 1023.0
20260509040027 66 237 4.0 7.0 0.00 0.00 0.00 55 1023.0
20260509035024 66 195 3.0 7.0 0.00 0.00 0.00 53 1023.1
20260509034022 65 245 3.0 8.0 0.00 0.00 0.00 55 1023.2
20260509033040 65 230 4.0 9.0 0.00 0.00 0.00 56 1023.2
20260509032017 65 213 2.0 5.0 0.00 0.00 0.00 56 1023.3
20260509031034 65 227 3.0 6.0 0.00 0.00 0.00 57 1023.5
20260509030033 64 278 2.0 5.0 0.00 0.00 0.00 59 1023.7
20260509025030 64 165 3.0 6.0 0.00 0.00 0.00 60 1023.8
20260509024028 64 125 2.0 4.0 0.00 0.00 0.00 61 1023.9
20260509023025 64 170 3.0 6.0 0.00 0.00 0.00 61 1024.2
20260509022043 63 151 3.0 6.0 0.00 0.00 0.00 64 1024.4
20260509021020 63 171 2.0 4.0 0.00 0.00 0.00 63 1024.6
20260509020018 62 193 3.0 5.0 0.00 0.00 0.00 64 1024.7
20260509015036 62 143 3.0 5.0 0.00 0.00 0.00 64 1024.8
20260509014033 61 152 2.0 4.0 0.00 0.00 0.00 66 1025.0
20260509013031 61 197 3.0 7.0 0.00 0.00 0.00 68 1025.1
20260509012028 60 169 2.0 6.0 0.00 0.00 0.00 69 1025.3
20260509011026 60 188 3.0 7.0 0.00 0.00 0.00 71 1025.2
20260509010024 59 200 3.0 6.0 0.00 0.00 0.00 73 1025.3
20260509005021 59 213 3.0 8.0 0.00 0.00 0.00 74 1025.3
20260509004019 59 223 3.0 6.0 0.00 0.00 0.00 74 1025.2
20260509003016 58 179 3.0 9.0 0.00 0.00 0.00 76 1025.2
20260509002034 57 178 3.0 7.0 0.00 0.00 0.00 77 1025.2
20260509001052 56 173 3.0 6.0 0.00 0.00 0.00 79 1025.3